Location: Coll
(42.4728°N, 0.7714°E)
Time: 12:20:06
(UTC+00:00)

ALOS - Pass Details

Date: 23 October 2020
Orbit: 684 x 684 km, 97.9° (Epoch: 01 December)

Event Time Altitude Azimuth Distance (km) Brightness Sun altitude
Rises 05:16:13 0° 4° (N) 3,058 5.6 -12.4°
Reaches altitude 10° 05:18:35 10° 356° (N) 2,138 4.7 -11.9°
Maximum altitude 05:22:53 37° 290° (WNW) 1,060 2.8 -11.1°
Drops below altitude 10° 05:27:08 10° 224° (SW) 2,124 4.5 -10.4°
Sets 05:29:29 0° 216° (SW) 3,035 5.3 -9.9°
